Wind_Speed
12 10 9 9 10 8 8 7 8 7 8 7 7 7 9 8 7 6 8 8 9 10 11 11 11 11 12 11 10 10 8 2
5 7 10 9 9 8 7 7 8 10 10 11 12 12 16 13 10 13 11 11 11 12 13 13 13 13 12 12 13 9 5 6
9 8 6 4 7 9 7 9 11 11 12 14 10 13 10 14 16 17 16 15 15 15 15 16 15 10 12 14 13 4 5 9
9 5 4 8 3 7 10 10 8 7 6 9 3 8 5 10 13 16 16 19 17 14 20 17 11 9 11 12 10 9 16 16
10 9 5 8 2 6 3 3 3 5 1 8 4 10 5 4 8 12 15 15 13 17 16 15 14 21 17 14 16 17 13 10
10 4 5 5 5 2 4 2 2 2 4 4 4 2 5 5 4 7 6 9 12 12 14 14 18 17 19 22 18 16 13 11
14 10 5 3 1 2 2 4 2 6 1 6 5 4 7 7 8 8 8 10 12 13 17 17 17 17 17 19 22 19 16 15
13 14 8 5 3 7 3 2 2 2 3 7 5 6 8 10 11 13 14 11 15 20 20 21 21 19 19 17 22 24 20 17
15 12 7 7 8 6 2 4 6 4 5 9 10 7 8 11 13 15 14 15 20 24 19 21 22 22 23 23 21 25 25 21
7 6 4 8 5 7 2 5 7 5 8 8 10 13 13 15 15 15 16 20 24 26 27 24 25 25 26 25 25 26 25 25
1 2 7 4 6 7 7 9 9 2 9 8 12 12 12 19 19 19 20 23 26 25 25 26 26 26 27 27 27 27 28 28
2 3 6 10 8 6 6 7 7 8 8 10 15 17 17 18 21 27 28 31 34 30 26 28 32 32 31 32 32 32 32 30
9 8 8 2 3 5 7 6 7 6 9 12 15 15 22 22 27 23 25 29 26 27 29 31 31 29 30 30 30 30 31 33
7 4 2 5 1 4 7 8 10 10 10 11 13 19 22 28 28 30 21 24 28 29 24 25 26 25 26 29 31 31 28 29
9 6 5 6 3 2 6 8 7 10 13 19 29 25 25 27 20 21 24 26 32 30 26 26 29 27 21 22 25 25 25 28
7 5 4 7 9 7 8 7 10 13 17 18 22 25 22 19 22 24 27 28 31 27 20 23 25 27 30 28 25 21 12 25
5 4 7 9 10 10 13 14 18 20 16 18 19 18 19 23 25 26 28 31 31 22 22 22 21 22 25 29 28 29 25 19
6 7 8 10 13 15 15 17 15 17 18 19 17 22 26 27 28 28 28 21 20 21 22 26 24 24 25 22 23 23 21 20
7 9 11 13 13 14 14 14 15 16 18 20 24 30 27 28 25 22 19 21 24 26 27 19 20 24 19 18 17 18 16 14
10 11 12 16 16 16 16 18 15 16 23 27 29 21 25 22 17 17 23 24 23 15 8 15 17 20 17 16 15 16 16 13
Wind_Direction
108 86 73 55 45 51 49 55 58 59 56 42 31 24 15 3 353 3 352 345 339 338 341 344 345 343 339 337 340 345 346 227
93 63 37 29 19 36 54 61 56 56 55 46 45 36 15 1 5 350 345 340 337 335 335 336 337 336 337 338 340 347 0 339
119 140 119 36 13 19 47 58 49 42 38 51 35 37 3 344 349 354 349 343 339 334 334 335 336 344 345 337 341 8 335 273
164 109 149 112 112 14 21 30 13 46 21 56 27 341 342 7 354 349 351 349 357 348 337 345 342 335 322 310 306 296 269 284
180 172 132 128 52 85 122 50 48 4 28 344 354 56 326 360 345 342 337 347 349 329 341 329 317 303 303 278 266 266 279 284
180 206 215 133 136 106 89 171 167 118 287 323 8 93 302 346 312 333 351 316 318 327 321 313 307 309 307 309 300 296 281 250
187 193 222 254 245 202 259 185 233 236 204 294 10 21 343 349 347 351 334 342 328 307 299 297 291 287 290 294 292 291 282 284
192 200 196 244 205 253 248 322 228 42 259 267 312 329 337 346 331 335 334 317 297 304 315 315 311 303 298 285 287 292 293 260
202 237 172 212 232 243 225 221 254 207 247 286 295 303 297 309 314 318 316 295 301 312 301 294 293 292 290 289 286 289 290 292
279 157 207 241 205 239 218 246 263 225 253 264 284 293 297 301 299 295 299 294 307 309 304 300 294 290 287 283 283 279 275 280
202 252 213 233 235 225 266 253 270 231 249 272 270 260 290 294 299 303 304 303 307 306 298 295 292 287 285 284 285 284 277 268
172 179 171 200 193 265 269 272 289 270 288 272 268 281 289 281 310 315 312 310 306 302 289 286 287 289 288 286 282 276 270 268
125 203 207 149 213 236 238 235 254 272 277 296 292 298 288 298 308 304 295 298 290 284 285 287 288 289 290 287 285 283 281 278
97 73 146 156 129 282 319 316 310 317 317 280 317 316 298 296 300 304 310 293 291 296 302 301 294 294 290 292 295 292 285 281
76 61 5 330 80 268 283 308 298 290 286 280 298 278 286 308 316 310 304 301 297 300 296 293 293 287 285 290 301 290 296 274
57 63 36 326 333 321 308 321 304 288 293 285 290 295 309 296 296 304 302 298 294 306 293 276 274 279 277 270 269 288 312 295
49 30 349 333 338 325 321 309 310 317 321 316 303 308 291 293 301 297 296 294 298 286 279 275 276 285 294 301 294 282 294 299
5 349 333 326 313 313 316 321 324 315 319 318 313 303 306 310 307 302 302 301 286 281 289 300 305 315 309 301 300 302 297 290
328 320 326 328 327 330 314 308 308 312 316 312 308 315 321 316 315 312 298 290 292 288 290 291 309 312 315 310 304 301 298 300
329 318 319 320 316 303 305 305 306 305 302 302 312 315 312 328 313 306 301 293 297 284 294 310 312 307 298 301 296 290 291 301
Height
1553 1554 1555 1556 1556 1556 1557 1558 1558 1559 1557 1559 1559 1559 1558 1558 1558 1557 1558 1557 1556 1556 1556 1554 1553 1553 1552 1551 1550 1548 1548 1551
1553 1556 1555 1557 1559 1558 1558 1558 1559 1559 1557 1559 1560 1560 1559 1558 1559 1558 1558 1557 1556 1556 1555 1554 1553 1552 1551 1550 1549 1548 1548 1548
1557 1558 1559 1559 1558 1559 1560 1561 1560 1559 1559 1560 1560 1560 1559 1559 1559 1559 1557 1557 1555 1554 1553 1552 1551 1550 1549 1548 1548 1547 1545 1546
1558 1557 1557 1561 1562 1560 1559 1561 1560 1559 1561 1562 1562 1561 1561 1561 1560 1559 1557 1556 1555 1554 1552 1552 1550 1549 1547 1547 1546 1545 1544 1544
1556 1558 1558 1559 1562 1561 1563 1563 1563 1561 1560 1561 1561 1561 1561 1560 1559 1558 1557 1555 1554 1553 1552 1551 1550 1549 1546 1545 1544 1542 1541 1542
1552 1556 1558 1557 1560 1561 1562 1563 1563 1563 1561 1560 1559 1560 1559 1558 1558 1557 1557 1556 1555 1554 1552 1551 1549 1546 1544 1542 1540 1539 1538 1538
1552 1551 1557 1555 1558 1560 1560 1561 1562 1560 1560 1558 1558 1558 1557 1556 1556 1555 1555 1554 1553 1552 1550 1548 1546 1544 1542 1538 1536 1534 1534 1533
1549 1543 1545 1552 1557 1557 1559 1559 1560 1559 1559 1557 1557 1557 1556 1555 1555 1554 1553 1552 1551 1549 1546 1543 1541 1540 1538 1537 1534 1531 1531 1530
1543 1540 1541 1549 1555 1557 1558 1558 1558 1558 1558 1557 1556 1555 1554 1553 1552 1551 1550 1549 1546 1545 1543 1541 1539 1537 1534 1532 1530 1528 1525 1525
1540 1543 1546 1550 1555 1556 1557 1557 1556 1556 1556 1556 1554 1552 1550 1549 1548 1548 1547 1545 1543 1541 1539 1536 1534 1532 1530 1528 1526 1524 1521 1519
1545 1547 1548 1551 1553 1555 1555 1555 1554 1554 1554 1553 1552 1550 1548 1546 1545 1544 1543 1540 1538 1536 1534 1533 1530 1527 1524 1522 1521 1519 1517 1515
1546 1548 1548 1550 1552 1552 1553 1553 1552 1552 1552 1551 1548 1547 1544 1543 1543 1541 1539 1536 1533 1530 1527 1525 1524 1521 1518 1514 1512 1512 1511 1510
1546 1546 1547 1550 1551 1551 1551 1551 1550 1550 1550 1547 1546 1545 1543 1539 1537 1535 1533 1530 1528 1525 1521 1517 1516 1515 1512 1507 1505 1504 1503 1502
1547 1547 1547 1549 1549 1550 1549 1549 1548 1548 1547 1545 1545 1543 1540 1536 1533 1530 1525 1524 1522 1519 1515 1511 1510 1511 1509 1504 1497 1495 1496 1496
1547 1548 1547 1547 1549 1548 1547 1546 1546 1545 1543 1542 1539 1537 1535 1533 1531 1528 1523 1520 1516 1514 1511 1508 1504 1503 1504 1503 1496 1490 1488 1487
1548 1548 1548 1547 1546 1546 1545 1544 1542 1540 1538 1536 1534 1532 1531 1529 1526 1523 1518 1515 1511 1508 1506 1501 1498 1496 1494 1495 1494 1491 1485 1477
1549 1549 1549 1547 1546 1544 1542 1540 1539 1537 1536 1533 1531 1529 1526 1523 1521 1516 1513 1510 1508 1502 1498 1495 1495 1494 1492 1488 1487 1485 1484 1481
1549 1549 1548 1547 1544 1542 1539 1537 1536 1534 1532 1530 1527 1523 1521 1519 1515 1511 1508 1504 1502 1498 1494 1492 1491 1491 1488 1485 1482 1479 1477 1476
1547 1546 1546 1544 1541 1539 1537 1534 1533 1531 1528 1525 1521 1519 1516 1513 1510 1507 1503 1500 1497 1494 1491 1489 1489 1488 1484 1481 1479 1477 1474 1473
1545 1544 1543 1541 1539 1535 1534 1531 1528 1526 1524 1521 1519 1516 1513 1510 1506 1502 1500 1496 1492 1489 1486 1486 1485 1484 1480 1479 1477 1475 1473 1471